Juigalpa, Nicaragua

5:54 PM CST on August 29, 2015 (GMT -0600)
Juigalpa | | Change Station
CLOSE
Current Station
Airport
Location: Juigalpa,
Elevation: 295 ft
Nearby Weather Stations

Elev 295 ft 12.10 °N, 85.37 °W | Updated 54 minutes ago

Scattered Clouds
Scattered Clouds
86 °F
Feels Like 93 °F
N
7
Wind Variable Wind from ENE

Today
High -- | Low -- °F
--% Chance of Precip.
Yesterday
High -- | Low -- °F
Precip. -- in
5:30 AM 5:53 PM
Full, 100% visible
Pressure 29.80 in
Visibility 6.2 miles
Clouds Few 2000 ft
Scattered Clouds 30000 ft
Heat Index 93 °F
Dew Point 73 °F
Humidity 66%
Rainfall 0.00 in
Snow Depth Not available.
UV 1 out of 12
Pollen Not available.
Air Quality Not available.
Flu Activity Not available.
METAR MNJU 292300Z 06006KT 9999 FEW020TCU SCT300 30/23 Q1009 TCU/SE
Pressure 29.80 in
Visibility 6.2 miles
Clouds Few 2000 ft
Scattered Clouds 30000 ft
Heat Index 93 °F
Dew Point 73 °F
Humidity 66%
Rainfall 0.00 in
Snow Depth Not available.
UV 1 out of 12
Pollen Not available.
Air Quality Not available.
Flu Activity Not available.
METAR MNJU 292300Z 06006KT 9999 FEW020TCU SCT300 30/23 Q1009 TCU/SE

10-Day Weather Forecast

×

Almanac

Astronomy

Aug. 29, 2015 Rise Set
Actual Time
Civil Twilight
Nautical Twilight
Astronomical Twilight
Moon
Length of Visible Light
Length of Day
Tomorrow will be .
, % of the Moon is Illuminated

Today's Extremes

Country Highs Country Lows

Community

WunderPhotos

Upload Photos

1,850,784 photos uploaded!

WunderBlogs® & News

Nearby

Air Quality

  Air Quality AQ Index Pollutant
Not available.

Snow Depth

Station Depth Elevation

Earthquake Activity

City Distance Mag. Time & Date
Minimum magnitude displayed is 2.5.

Coastal Water Temperatures

Place Temperature

Stations

Nearby Weather Stations

Station Location Temp. Windchill Dew Point Humidity Wind Precip. Elev Updated Type